Location: Alafon
(8.4500°N, 4.2333°E)
Time: 15:46:48
(UTC+00:00)

SR - Pass Details

Date: 08 August 2021
Orbit: 581 x 874 km, 66.7° (Epoch: 18 September)

Event Time Altitude Azimuth Distance (km) Brightness Sun altitude
Rises 15:15:39 0° 304° (NW) 2,819 ? 39.0°
Reaches altitude 10° 15:19:34 10° 268° (W) 1,893 ? 38.1°
Maximum altitude 15:20:43 11° 252° (WSW) 1,826 ? 37.8°
Drops below altitude 10° 15:21:53 10° 236° (SW) 1,888 ? 37.5°
Sets 15:25:48 0° 199° (SSW) 2,797 ? 36.6°
